Home > Weather > Edinburgh > Past weeks

Flag for United Kingdom Weather for the Past 2 Weeks in Edinburgh, Scotland, United Kingdom

Now
30 °F

Haze.


Feels Like: 25 °F
Forecast: N/A
Wind: 5 mph from Southeast

Location: Edinburgh Airport

Current Time: Feb 12, 2016 at 11:40:26 PM

Latest Report: Feb 12, 2016 at 10:50 PM


Visibility: 2 mi

Pressure: 29.45 "Hg

Humidity: 100%

Dew point: 30 °F

Location of EdinburghLocation

Historic Weather in Edinburgh — Graph

°F

Edinburgh Temperature Yesterday

Maximum temperature yesterday: 41 °F (at 11:50 AM)
Minimum temperature yesterday: 30 °F (at 1:50 AM)
Average temperature yesterday: 35 °F

High & Low Weather Summary for the Past Weeks

 TemperatureHumidityPressure
High52 °F (Jan 29, 12:50 AM)100% (Jan 30, 6:50 AM)30.15 "Hg (Jan 30, 6:50 AM)
Low25 °F (Feb 12, 3:20 AM)53% (Feb 2, 3:20 PM)28.50 "Hg (Feb 8, 5:20 AM)
Average40 °F84%29.37 "Hg
* Reported Jan 28 10:20 PM — Feb 12 10:20 PM, Edinburgh, Weather by CustomWeather, © 2016

Note: Actual official high and low records may vary slightly from our data, if they occured in-between our weather recording intervals... More about our weather records

Advertising

Edinburgh Weather History for the Previous 24 Hours

 ConditionsComfort  
Time TempWeatherWind HumidityBarometerVisibility
10:20 PM
Fri, Feb 12
30 °FPassing clouds.6 mph100%29.45 "HgN/A
9:20 PM30 °FPassing clouds.7 mph100%29.45 "Hg4 mi
8:50 PM34 °FPassing clouds.5 mph93%29.47 "HgN/A
8:20 PM32 °FPassing clouds.5 mph100%29.47 "HgN/A
7:50 PM34 °FPassing clouds.2 mph93%29.47 "HgN/A
7:20 PM34 °FPassing clouds.3 mph93%29.47 "HgN/A
6:50 PM36 °FOvercast.2 mph93%29.47 "HgN/A
6:20 PM36 °FPassing clouds.3 mph93%29.47 "HgN/A
5:50 PM36 °FPassing clouds.3 mph93%29.47 "HgN/A
5:20 PM36 °FPassing clouds.6 mph93%29.47 "HgN/A
4:50 PM37 °FScattered clouds.5 mph93%29.47 "HgN/A
4:20 PM39 °FScattered clouds.6 mph87%29.45 "HgN/A
3:50 PM41 °FScattered clouds.8 mph81%29.45 "HgN/A
3:20 PM41 °FLight rain. Partly sunny.8 mph81%29.45 "HgN/A
2:50 PM41 °FPartly sunny.7 mph87%29.45 "HgN/A
2:20 PM41 °FPartly sunny.8 mph87%29.47 "HgN/A
1:50 PM41 °FBroken clouds.8 mph87%29.47 "HgN/A
1:20 PM39 °FBroken clouds.10 mph93%29.47 "HgN/A
12:50 PM41 °FMostly cloudy.8 mph87%29.47 "HgN/A
12:20 PM39 °FMostly cloudy.9 mph87%29.47 "HgN/A
11:50 AM39 °FPartly sunny.7 mph93%29.47 "HgN/A
11:20 AM39 °FPartly sunny.3 mph87%29.47 "HgN/A
10:50 AM37 °FPartly sunny.7 mph93%29.47 "HgN/A
10:20 AM36 °FScattered clouds.6 mph100%29.47 "HgN/A
9:50 AM34 °FBroken clouds.3 mph100%29.47 "HgN/A
9:20 AM34 °FPartly sunny.5 mph100%29.47 "HgN/A
8:50 AM34 °FPartly sunny.5 mph100%29.47 "HgN/A
8:20 AM34 °FPassing clouds.3 mph100%29.45 "Hg6 mi
7:50 AM32 °FIce fog.5 mph93%29.45 "Hg2 mi
7:20 AM32 °FIce fog.5 mph100%29.45 "Hg3 mi
6:50 AM28 °FPassing clouds.No wind100%29.45 "Hg4 mi
6:20 AM30 °FOvercast.No wind93%29.47 "Hg4 mi
5:20 AM28 °FOvercast.No wind93%29.47 "Hg4 mi
4:50 AM28 °FOvercast.No wind93%29.47 "Hg4 mi
4:20 AM27 °FOvercast.No wind100%29.47 "Hg4 mi
3:50 AM27 °FIce fog.No wind93%29.47 "Hg0 mi
3:20 AM25 °FIce fog.No wind100%29.47 "Hg0 mi
2:50 AM27 °FIce fog.No wind93%29.47 "Hg0 mi
2:20 AM27 °FLight fog.No wind93%29.47 "Hg1 mi
1:50 AM27 °FLight fog.No wind100%29.50 "Hg1 mi
1:20 AM28 °FLight fog.No wind93%29.50 "Hg1 mi
12:50 AM28 °FLight fog.No wind100%29.50 "Hg1 mi
12:20 AM28 °FLight fog.2 mph100%29.50 "Hg1 mi
11:50 PM
Thu, Feb 11
30 °FLight fog.2 mph93%29.50 "Hg1 mi
11:20 PM30 °FFog.2 mph100%29.50 "HgN/A
Weather by CustomWeather, © 2016

See weather overviewHow to use our weather pages